Location: Unspecified
(45.3999°N, 88.1269°W)
Time: 16:18:42
(UTC-05:00)

CZ-3 Stage 3 - Visible Passes

Search period start: 18 June 2018 00:00
Search period end: 28 June 2018 00:00
Orbit: 407 x 34788 km, 30.8° (Epoch: 18 June)

Date Brightness Start Highest point End Pass type
(mag) Time Alt. Az. Time Alt. Az. Time Alt. Az.
18 Jun 6.9 02:20:59 19° SSW 04:34:13 25° SW 09:49:28 10° SE visible
18 Jun 8.5 22:50:56 15° SSE 05:37:27 60° SSE 06:12:39 10° E visible
19 Jun 9.0 22:05:22 10° ESE 01:20:15 31° ESE 02:24:50 10° E visible
21 Jun 6.9 01:14:45 10° SSW 04:22:23 26° SW 09:39:45 10° SE visible
21 Jun 8.4 22:04:08 10° SSE 05:27:02 61° SSE 06:02:55 10° E daylight
22 Jun 8.9 21:50:21 10° ESE 01:09:26 32° ESE 02:15:11 10° E visible
24 Jun 6.9 01:02:19 10° SSW 04:10:33 26° SW 09:29:59 10° SE visible
24 Jun 8.4 21:50:24 10° SSE 05:16:33 62° SSE 05:53:10 10° E daylight
25 Jun 8.9 21:35:24 10° ESE 00:58:32 32° ESE 02:05:28 10° E visible
27 Jun 6.9 00:49:58 10° SSW 03:58:43 27° SW 09:20:11 10° SE visible
